Wind_Speed
84 84 80 73 66 67 73 76 78 78 76 78 72 70 65 63 62 58 53 44 43 46 45 45 39 39 35 34 34 32 32 32
89 85 85 79 73 67 69 82 83 84 80 77 74 68 71 66 64 59 53 47 44 43 48 44 43 41 38 36 35 32 30 30
82 87 85 83 76 69 65 78 89 90 84 79 77 74 73 70 63 60 54 52 47 46 46 47 48 43 40 34 33 32 31 32
82 83 85 87 79 71 65 72 88 92 89 85 79 76 71 67 64 60 60 55 49 49 49 49 49 44 41 36 33 32 31 28
75 78 85 85 80 75 67 70 83 90 95 89 80 75 71 68 68 64 62 53 50 50 50 49 47 43 41 35 35 31 28 29
65 68 77 80 78 73 67 70 77 88 95 90 79 76 71 71 68 64 59 53 50 49 48 47 46 43 40 36 36 34 34 34
54 62 68 68 63 57 55 58 68 80 89 83 75 75 74 69 65 61 53 50 49 48 49 48 47 43 40 39 40 36 36 38
40 46 54 54 40 48 44 54 63 76 86 78 77 76 71 68 65 58 52 50 48 49 45 47 44 40 38 38 37 36 39 41
32 37 46 49 44 47 51 61 66 78 86 83 77 75 71 70 64 57 53 50 49 47 49 42 42 40 39 39 38 39 43 44
27 30 35 40 47 55 55 58 69 82 90 83 74 73 71 70 65 60 54 55 50 49 50 46 42 41 39 39 38 43 44 46
23 26 33 39 43 46 54 62 67 77 85 80 75 69 67 60 52 53 53 55 50 51 48 45 43 42 39 43 50 45 42 42
22 19 24 29 40 49 54 58 59 68 77 70 65 64 60 55 47 48 50 55 58 50 45 46 44 45 46 50 54 45 44 43
26 21 18 28 39 48 54 59 62 64 62 62 62 63 59 63 49 48 51 52 49 44 45 48 49 49 49 53 55 50 47 47
29 25 17 26 38 46 48 63 64 65 64 66 59 59 65 62 50 49 55 58 55 50 47 50 52 50 53 52 54 56 54 50
29 33 29 25 34 41 48 55 59 67 74 74 65 59 55 55 56 56 62 68 59 54 51 53 53 52 52 57 55 54 54 53
37 32 27 32 39 45 49 56 63 73 74 72 70 67 66 67 71 72 67 66 64 57 52 55 58 63 64 61 57 55 54 55
48 51 53 45 47 51 55 60 64 72 74 74 72 74 73 69 71 74 72 64 64 64 61 57 60 64 66 65 62 60 60 59
55 53 54 45 47 55 56 60 64 69 73 75 75 77 76 74 73 71 73 73 72 70 70 72 73 73 69 69 73 74 66 58
59 58 53 51 54 53 53 56 59 65 72 75 78 79 79 79 78 79 78 77 77 76 74 70 78 76 72 67 63 63 62 62
Wind_Direction
268 267 264 261 252 242 231 223 219 226 231 235 234 235 234 240 244 247 250 248 250 260 258 263 270 276 277 276 282 281 282 286
266 261 261 260 256 245 233 223 219 222 227 232 232 233 233 234 240 244 247 249 249 255 260 263 269 270 273 271 276 281 280 283
259 259 257 257 254 248 237 226 220 219 224 228 230 229 232 233 236 241 244 246 247 253 258 264 266 267 271 268 273 275 275 276
257 252 255 255 252 249 240 228 223 220 220 225 227 230 232 234 237 240 242 244 245 251 257 258 263 264 269 264 266 274 274 272
252 249 246 249 250 246 240 228 224 220 222 224 224 228 228 231 234 236 239 244 247 251 255 258 261 265 261 258 263 266 266 272
247 242 244 243 245 245 236 229 223 219 221 222 222 226 227 229 234 236 239 243 246 250 254 258 261 260 257 253 261 258 267 280
242 242 240 243 246 245 239 227 225 219 218 219 222 226 226 227 232 238 241 244 247 249 253 255 257 257 255 255 262 261 269 283
234 240 244 244 244 236 228 216 218 212 212 216 222 226 227 227 230 235 239 244 246 247 247 249 251 254 254 257 260 262 274 283
219 218 226 233 232 223 216 209 209 205 206 211 218 224 226 229 230 233 236 240 244 245 247 249 254 254 255 262 262 264 276 284
203 208 213 214 215 213 207 204 205 203 205 209 214 220 225 229 228 233 238 239 240 242 249 251 254 258 259 259 259 265 275 283
194 198 207 210 211 206 202 200 201 202 206 210 216 221 226 231 235 239 239 240 239 242 245 250 254 258 259 263 262 272 277 281
181 180 198 205 203 199 196 195 198 203 205 209 216 224 226 225 231 235 238 243 236 240 244 253 257 257 257 263 267 273 277 276
143 132 175 191 196 197 190 193 195 200 200 204 209 219 218 225 225 232 237 244 241 244 249 259 258 258 260 262 264 273 275 277
141 133 154 184 187 188 192 194 197 196 195 203 209 220 218 222 230 239 238 240 242 239 243 251 257 261 262 261 267 271 277 278
158 143 198 185 181 188 190 197 197 196 196 201 204 206 205 214 225 231 232 240 242 241 249 251 261 264 260 264 269 271 275 276
157 168 187 199 201 195 196 198 201 200 200 205 207 206 207 211 217 222 229 233 236 239 242 250 256 259 261 263 267 270 275 276
169 174 191 204 205 204 201 201 202 204 206 208 210 211 212 218 222 226 229 232 236 238 239 243 249 255 261 266 267 270 272 276
188 184 190 204 210 211 208 204 203 205 209 212 215 217 219 222 226 231 234 237 240 242 246 251 254 255 260 267 268 270 273 271
192 198 197 194 213 210 212 211 209 210 211 214 218 222 225 228 232 234 236 239 242 245 247 252 256 257 261 262 262 265 266 271
Height
10529 10524 10526 10534 10546 10553 10561 10568 10579 10587 10591 10602 10620 10632 10638 10643 10647 10654 10661 10668 10670 10672 10677 10679 10683 10685 10685 10684 10683 10683 10683 10683
10504 10505 10502 10510 10521 10530 10541 10550 10560 10565 10575 10586 10602 10615 10620 10627 10634 10642 10652 10658 10660 10662 10666 10670 10673 10675 10677 10676 10675 10675 10676 10675
10478 10477 10480 10485 10499 10512 10522 10534 10537 10547 10560 10571 10582 10592 10604 10611 10623 10632 10640 10644 10649 10653 10656 10660 10662 10666 10666 10668 10667 10666 10667 10667
10444 10447 10456 10462 10478 10492 10502 10515 10522 10531 10544 10551 10565 10577 10594 10605 10613 10620 10624 10631 10641 10643 10645 10649 10652 10655 10657 10658 10658 10658 10659 10660
10412 10422 10423 10436 10455 10468 10482 10493 10504 10520 10528 10538 10555 10569 10581 10593 10597 10604 10612 10623 10629 10632 10635 10638 10642 10645 10648 10649 10649 10650 10650 10651
10385 10394 10400 10410 10428 10445 10462 10471 10486 10502 10512 10527 10543 10555 10568 10574 10586 10595 10604 10612 10617 10621 10624 10627 10631 10635 10638 10639 10640 10641 10641 10642
10365 10375 10379 10392 10407 10427 10448 10466 10477 10492 10507 10520 10533 10541 10552 10564 10574 10584 10594 10600 10606 10610 10612 10617 10621 10625 10628 10630 10631 10631 10632 10633
10351 10363 10376 10384 10395 10415 10433 10449 10461 10475 10493 10510 10519 10527 10542 10553 10563 10573 10582 10588 10596 10598 10603 10607 10610 10613 10617 10619 10621 10622 10623 10623
10339 10348 10360 10373 10389 10401 10415 10428 10442 10459 10477 10491 10504 10518 10532 10540 10554 10563 10573 10581 10584 10589 10594 10596 10599 10602 10607 10610 10612 10613 10613 10613
10334 10342 10353 10363 10373 10383 10401 10421 10430 10445 10463 10480 10496 10511 10522 10533 10545 10557 10564 10570 10574 10578 10585 10587 10589 10593 10597 10600 10602 10603 10604 10604
10331 10339 10348 10355 10367 10383 10396 10412 10425 10445 10463 10483 10493 10504 10516 10531 10543 10553 10557 10560 10565 10569 10574 10577 10580 10584 10587 10590 10592 10593 10594 10594
10330 10336 10346 10357 10367 10378 10394 10407 10429 10448 10465 10479 10492 10503 10513 10523 10534 10542 10548 10552 10556 10559 10564 10565 10570 10573 10577 10579 10579 10581 10582 10582
10334 10340 10349 10356 10366 10378 10390 10406 10420 10438 10457 10472 10483 10493 10502 10513 10523 10532 10538 10542 10547 10551 10554 10554 10559 10562 10565 10567 10567 10568 10570 10570
10337 10343 10354 10360 10367 10378 10392 10403 10415 10431 10447 10460 10472 10480 10491 10502 10511 10519 10526 10530 10536 10539 10542 10544 10546 10550 10553 10553 10554 10555 10557 10558
10340 10350 10363 10362 10368 10377 10387 10399 10410 10422 10432 10441 10455 10467 10478 10490 10499 10508 10515 10516 10519 10525 10529 10533 10534 10535 10538 10540 10542 10542 10544 10544
10335 10346 10356 10361 10366 10372 10380 10391 10402 10413 10424 10435 10446 10457 10465 10473 10482 10489 10495 10501 10507 10514 10519 10522 10523 10523 10524 10527 10529 10529 10530 10531
10329 10335 10345 10353 10360 10366 10373 10380 10392 10404 10415 10426 10436 10445 10453 10461 10470 10477 10484 10488 10495 10502 10507 10509 10509 10509 10511 10514 10515 10515 10517 10517
10324 10329 10336 10348 10354 10360 10367 10377 10387 10397 10407 10417 10426 10435 10443 10451 10457 10463 10469 10475 10481 10488 10492 10492 10493 10495 10499 10500 10501 10503 10503 10503
10320 10326 10331 10336 10342 10351 10361 10370 10380 10389 10399 10408 10415 10423 10432 10440 10447 10452 10458 10462 10467 10473 10477 10476 10478 10482 10486 10487 10488 10488 10488 10490